FW6956 Weather Reports


time (UTC)temp
C
wind
direction
speed
KPH
gust
KPH
rain 1hr
cm
rain 24hr
cm
rain mn
cm
humidity
%
barometer
mb
20260504213112 25 211 4.8 12.9 0.00 0.00 0.00 32 1013.2
20260504211555 26 158 3.2 19.3 0.00 0.00 0.00 34 1013.1
20260504210057 26 120 1.6 11.3 0.00 0.00 0.00 32 1013.0
20260504204605 26 252 1.6 12.9 0.00 0.00 0.00 31 1013.2
20260504203056 26 285 3.2 11.3 0.00 0.00 0.00 29 1013.4
20260504201558 26 235 3.2 14.5 0.00 0.00 0.00 30 1013.7
20260504200055 26 247 1.6 17.7 0.00 0.00 0.00 31 1013.9
20260504194559 26 210 4.8 19.3 0.00 0.00 0.00 31 1013.9
20260504193102 26 275 4.8 17.7 0.00 0.00 0.00 31 1014.0
20260504191604 26 211 1.6 14.5 0.00 0.00 0.00 34 1014.2
20260504190056 26 223 4.8 16.1 0.00 0.00 0.00 32 1014.5
20260504184556 25 202 4.8 14.5 0.00 0.00 0.00 32 1014.7
20260504183057 25 174 4.8 12.9 0.00 0.00 0.00 35 1014.9
20260504181559 25 173 0.0 12.9 0.00 0.00 0.00 35 1015.1
20260504174558 23 60 1.6 12.9 0.00 0.00 0.00 35 1015.4
20260504173057 24 240 1.6 12.9 0.00 0.00 0.00 36 1015.4
20260504171600 23 211 0.0 9.7 0.00 0.00 0.00 38 1015.5
20260504150109 19 0 3.2 8.0 0.00 0.00 0.00 46 1017.8
20260504130109 10 218 0.0 3.2 0.00 0.00 0.00 73 1017.9
20260504110105 1 0 0.0 0.0 0.00 0.00 0.00 95 1017.5
20260504100108 1 0 0.0 0.0 0.00 0.00 0.00 94 1017.5
20260504081558 2 0 0.0 0.0 0.00 0.00 0.00 94 1017.3
20260504080115 2 0 0.0 0.0 0.00 0.00 0.00 93 1017.1
20260504044559 5 0 0.0 0.0 0.00 0.00 0.00 90 1017.4
20260504043111 5 0 0.0 0.0 0.00 0.00 0.00 90 1017.2
20260504041558 6 0 0.0 0.0 0.00 0.00 0.00 89 1017.2
20260504040123 6 0 0.0 0.0 0.00 0.00 0.00 88 1016.9
20260504034557 6 0 0.0 0.0 0.00 0.00 0.00 87 1016.8
20260504033059 6 0 0.0 0.0 0.00 0.00 0.00 87 1017.0
20260504031559 7 0 0.0 0.0 0.00 0.00 0.00 86 1017.2
20260504030058 7 0 0.0 0.0 0.00 0.00 0.00 85 1017.2
20260504024556 7 0 0.0 0.0 0.00 0.00 0.00 84 1017.1
20260504023102 8 0 0.0 0.0 0.00 0.00 0.00 82 1017.1
20260504021559 8 0 0.0 0.0 0.00 0.00 0.00 80 1017.0
20260504014606 10 0 0.0 0.0 0.00 0.00 0.00 76 1016.5
20260504013108 10 0 0.0 1.6 0.00 0.00 0.00 72 1016.1
20260504011600 11 0 0.0 0.0 0.00 0.00 0.00 70 1016.0
20260504010058 11 0 0.0 0.0 0.00 0.00 0.00 69 1015.8
20260504004557 12 0 0.0 0.0 0.00 0.00 0.00 64 1015.7
20260504003103 13 0 0.0 0.0 0.00 0.00 0.00 59 1015.5
20260504001607 15 0 0.0 0.0 0.00 0.00 0.00 53 1015.5
20260504000130 16 0 0.0 1.6 0.00 0.00 0.00 46 1015.2
20260503234559 17 0 0.0 3.2 0.00 0.00 0.00 41 1015.3
20260503233059 18 217 0.0 4.8 0.00 0.00 0.00 38 1015.1
20260503231555 19 223 1.6 4.8 0.00 0.00 0.00 34 1015.1
20260503230103 20 223 0.0 6.4 0.00 0.00 0.00 34 1015.1
20260503224555 20 0 1.6 4.8 0.00 0.00 0.00 33 1015.1
20260503223057 20 229 1.6 9.7 0.00 0.00 0.00 31 1015.1
20260503221559 20 212 3.2 12.9 0.00 0.00 0.00 29 1015.1
20260503214556 21 269 4.8 14.5 0.00 0.00 0.00 32 1015.3